sat.trackr.live / text

‹ back to catalog

KUIPER-00439

NORAD 68941 · 2026-098Y

PAYLOAD ACTIVE UNKNOWN

§ Identity

Operator
Country
US
Launch date
2026-04-30
Launch site
FRGUI
Launch vehicle
Mass (kg)
RCS (m²)

External: N2YO · Heavens-Above · Gunter

§ Orbital elements

Epoch: 2026-09-19T22:01:11.077248Z

Period
97.30 min
Inclination
51.9038°
Eccentricity
0.0000683
Mean motion
14.79919753 rev/d
Perigee alt
629.1 km
Apogee alt
630.1 km
Semi-major
7,007.7 km
B*
3.2225e-4
RAAN
356.7788°
Arg perigee
74.2551°
Mean anomaly
285.8487°
Rev number
2,154

§ Raw data

KUIPER-004391 68941U 26098Y   26262.91748932  .00002236  00000+0  32225-3 0  99932 68941  51.9038 356.7788 0000683  74.2551 285.8487 14.79919753 21540

JSON: /api/v1/satellites/68941 · /tle

For live sub-satellite position, see the globe view (requires WebGL).

§ Visibility from observer

Set your observer location to see the next 7 days of passes ≥ 10°. The values pass through the URL so the page stays shareable.

No JS? Fill the form by hand. The geolocation button needs JavaScript.